GEFSGL_prec_meanprecacc_006.txt.gz
Total_Precipitation_Accumulation
0.00 0.00 0.00 0.00 0.00 0.00 0.00 0.01 0.01 0.01 0.02 0.02 0.03 0.03 0.02 0.02 0.02 0.03 0.04 0.04 0.03 0.03 0.03 0.03 0.02 0.02 0.03 0.04 0.05 0.06 0.07 0.09 0.08 0.04 0.03 0.04 0.08 0.14 0.21 0.20 0.18 0.14 0.11
0.00 0.00 0.00 0.00 0.01 0.01 0.01 0.01 0.02 0.02 0.02 0.03 0.03 0.03 0.02 0.02 0.03 0.04 0.04 0.03 0.03 0.02 0.02 0.03 0.03 0.03 0.03 0.03 0.04 0.05 0.06 0.08 0.09 0.06 0.03 0.02 0.04 0.10 0.13 0.13 0.13 0.13 0.14
0.00 0.00 0.00 0.00 0.01 0.01 0.02 0.02 0.02 0.03 0.03 0.03 0.03 0.02 0.02 0.03 0.03 0.03 0.02 0.01 0.02 0.02 0.03 0.04 0.05 0.05 0.03 0.03 0.04 0.05 0.06 0.07 0.08 0.07 0.04 0.03 0.07 0.14 0.18 0.17 0.13 0.15 0.16
0.00 0.00 0.00 0.01 0.01 0.01 0.02 0.03 0.03 0.03 0.03 0.02 0.02 0.01 0.01 0.02 0.02 0.01 0.01 0.01 0.02 0.02 0.03 0.05 0.06 0.05 0.04 0.05 0.06 0.07 0.08 0.08 0.07 0.07 0.05 0.04 0.08 0.13 0.14 0.16 0.15 0.13 0.14
0.00 0.01 0.01 0.01 0.01 0.02 0.03 0.03 0.02 0.01 0.01 0.01 0.01 0.01 0.01 0.01 0.00 0.00 0.00 0.00 0.01 0.02 0.03 0.05 0.05 0.04 0.06 0.06 0.05 0.05 0.07 0.08 0.08 0.07 0.05 0.05 0.06 0.10 0.11 0.11 0.10 0.14 0.14
0.01 0.01 0.01 0.01 0.01 0.02 0.02 0.01 0.01 0.00 0.00 0.01 0.01 0.01 0.01 0.00 0.00 0.00 0.00 0.00 0.01 0.02 0.03 0.04 0.02 0.02 0.02 0.02 0.03 0.05 0.06 0.06 0.07 0.07 0.06 0.06 0.06 0.07 0.08 0.09 0.08 0.13 0.11
0.01 0.01 0.01 0.00 0.01 0.01 0.00 0.00 0.00 0.01 0.01 0.01 0.01 0.00 0.01 0.01 0.00 0.00 0.00 0.00 0.01 0.02 0.04 0.02 0.01 0.01 0.01 0.01 0.02 0.05 0.08 0.09 0.08 0.07 0.06 0.05 0.05 0.05 0.06 0.10 0.09 0.10 0.11
0.00 0.00 0.00 0.00 0.00 0.00 0.00 0.01 0.01 0.01 0.01 0.01 0.01 0.00 0.01 0.01 0.00 0.00 0.00 0.00 0.01 0.02 0.02 0.01 0.01 0.01 0.01 0.02 0.05 0.10 0.10 0.09 0.09 0.10 0.08 0.05 0.04 0.04 0.04 0.05 0.06 0.10 0.09
0.00 0.00 0.00 0.00 0.00 0.00 0.01 0.01 0.01 0.01 0.01 0.01 0.01 0.01 0.01 0.01 0.00 0.00 0.00 0.00 0.00 0.01 0.01 0.01 0.01 0.01 0.01 0.04 0.08 0.12 0.13 0.15 0.21 0.26 0.19 0.11 0.12 0.10 0.05 0.04 0.05 0.09 0.09
0.00 0.00 0.00 0.00 0.00 0.00 0.01 0.01 0.01 0.01 0.01 0.00 0.00 0.01 0.01 0.00 0.00 0.00 0.00 0.00 0.00 0.00 0.01 0.01 0.01 0.02 0.03 0.05 0.09 0.13 0.15 0.18 0.25 0.31 0.18 0.12 0.11 0.12 0.11 0.05 0.07 0.11 0.09
0.00 0.00 0.00 0.00 0.00 0.00 0.00 0.01 0.01 0.00 0.00 0.00 0.00 0.01 0.00 0.00 0.00 0.00 0.00 0.00 0.00 0.00 0.01 0.01 0.01 0.04 0.04 0.05 0.09 0.13 0.18 0.18 0.19 0.23 0.14 0.10 0.10 0.09 0.08 0.09 0.09 0.07 0.03
0.00 0.00 0.00 0.00 0.00 0.00 0.00 0.00 0.00 0.00 0.00 0.00 0.00 0.00 0.00 0.00 0.00 0.00 0.00 0.00 0.00 0.00 0.01 0.01 0.03 0.05 0.05 0.06 0.09 0.14 0.18 0.19 0.15 0.15 0.13 0.11 0.09 0.09 0.09 0.07 0.05 0.03 0.01
0.00 0.00 0.00 0.00 0.00 0.00 0.00 0.00 0.00 0.00 0.00 0.00 0.00 0.00 0.00 0.00 0.00 0.00 0.00 0.00 0.00 0.00 0.01 0.04 0.06 0.05 0.06 0.09 0.13 0.17 0.19 0.17 0.14 0.14 0.16 0.13 0.07 0.06 0.06 0.05 0.03 0.01 0.01
0.00 0.00 0.00 0.00 0.00 0.00 0.00 0.00 0.00 0.00 0.00 0.00 0.00 0.00 0.00 0.01 0.01 0.01 0.00 0.00 0.00 0.00 0.01 0.06 0.08 0.06 0.08 0.14 0.18 0.19 0.20 0.20 0.19 0.20 0.19 0.13 0.07 0.06 0.05 0.03 0.02 0.01 0.02
0.00 0.00 0.00 0.00 0.00 0.00 0.00 0.00 0.00 0.00 0.00 0.00 0.00 0.00 0.01 0.01 0.01 0.00 0.00 0.00 0.00 0.00 0.02 0.04 0.03 0.03 0.06 0.12 0.18 0.20 0.19 0.21 0.24 0.24 0.21 0.16 0.10 0.07 0.05 0.03 0.02 0.02 0.02
0.00 0.00 0.00 0.00 0.00 0.00 0.00 0.00 0.00 0.00 0.00 0.00 0.00 0.00 0.00 0.00 0.00 0.00 0.00 0.00 0.00 0.01 0.02 0.04 0.05 0.05 0.06 0.10 0.17 0.22 0.21 0.19 0.22 0.24 0.23 0.19 0.14 0.10 0.07 0.05 0.03 0.03 0.03
0.00 0.00 0.00 0.00 0.00 0.00 0.00 0.00 0.00 0.00 0.00 0.00 0.00 0.00 0.00 0.00 0.01 0.00 0.00 0.00 0.00 0.01 0.03 0.05 0.09 0.09 0.09 0.11 0.14 0.17 0.19 0.18 0.17 0.17 0.18 0.18 0.15 0.10 0.07 0.06 0.04 0.03 0.02
0.00 0.00 0.00 0.00 0.00 0.00 0.00 0.00 0.00 0.00 0.00 0.00 0.00 0.00 0.00 0.00 0.01 0.01 0.01 0.01 0.01 0.02 0.04 0.07 0.09 0.09 0.09 0.11 0.12 0.11 0.12 0.13 0.12 0.11 0.10 0.10 0.10 0.07 0.06 0.04 0.02 0.01 0.01
0.00 0.00 0.00 0.00 0.00 0.00 0.00 0.00 0.00 0.00 0.00 0.00 0.00 0.00 0.00 0.00 0.01 0.01 0.02 0.01 0.01 0.02 0.04 0.06 0.09 0.09 0.07 0.07 0.08 0.08 0.08 0.08 0.08 0.07 0.07 0.07 0.06 0.05 0.04 0.02 0.01 0.01 0.01
0.00 0.00 0.00 0.00 0.00 0.00 0.00 0.00 0.00 0.00 0.00 0.00 0.00 0.00 0.00 0.00 0.01 0.01 0.02 0.02 0.02 0.02 0.03 0.06 0.08 0.09 0.07 0.05 0.04 0.04 0.04 0.04 0.04 0.04 0.04 0.05 0.05 0.05 0.03 0.02 0.02 0.01 0.01
0.00 0.00 0.00 0.00 0.00 0.00 0.00 0.00 0.00 0.00 0.00 0.00 0.00 0.00 0.01 0.01 0.02 0.02 0.03 0.03 0.03 0.02 0.02 0.03 0.06 0.07 0.08 0.08 0.06 0.05 0.04 0.04 0.04 0.03 0.03 0.03 0.04 0.04 0.03 0.03 0.02 0.01 0.00
0.00 0.00 0.00 0.00 0.00 0.00 0.00 0.00 0.00 0.00 0.00 0.00 0.00 0.00 0.01 0.02 0.02 0.03 0.04 0.04 0.04 0.03 0.03 0.02 0.02 0.03 0.04 0.05 0.06 0.06 0.05 0.05 0.04 0.03 0.03 0.04 0.04 0.03 0.03 0.02 0.01 0.00 0.00
0.00 0.00 0.00 0.00 0.00 0.00 0.00 0.00 0.00 0.00 0.00 0.00 0.00 0.00 0.01 0.02 0.04 0.06 0.06 0.05 0.05 0.05 0.04 0.04 0.03 0.03 0.03 0.03 0.04 0.04 0.04 0.05 0.04 0.04 0.05 0.05 0.04 0.03 0.03 0.02 0.01 0.00 0.00
0.00 0.00 0.00 0.00 0.00 0.00 0.00 0.00 0.00 0.00 0.00 0.00 0.00 0.01 0.02 0.02 0.04 0.05 0.07 0.07 0.06 0.07 0.08 0.08 0.08 0.07 0.05 0.04 0.04 0.05 0.06 0.07 0.06 0.07 0.06 0.04 0.03 0.03 0.02 0.01 0.00 0.00 0.00
0.00 0.00 0.00 0.00 0.00 0.00 0.00 0.00 0.00 0.00 0.00 0.00 0.00 0.01 0.02 0.02 0.03 0.03 0.04 0.06 0.06 0.06 0.07 0.09 0.09 0.09 0.08 0.06 0.04 0.04 0.06 0.06 0.04 0.05 0.06 0.03 0.02 0.02 0.02 0.01 0.00 0.00 0.00
0.00 0.00 0.00 0.00 0.00 0.00 0.00 0.00 0.00 0.00 0.00 0.00 0.00 0.01 0.01 0.02 0.04 0.04 0.05 0.05 0.05 0.05 0.06 0.08 0.09 0.07 0.06 0.05 0.04 0.03 0.03 0.02 0.01 0.01 0.05 0.04 0.02 0.02 0.02 0.01 0.00 0.00 0.00

GEFSGL_prec_meanprecacc_012.txt.gz
Total_Precipitation_Accumulation
0.00 0.00 0.00 0.00 0.00 0.00 0.00 0.01 0.01 0.01 0.02 0.03 0.03 0.03 0.03 0.02 0.02 0.03 0.05 0.05 0.04 0.03 0.03 0.03 0.03 0.03 0.04 0.05 0.07 0.08 0.09 0.13 0.13 0.07 0.03 0.04 0.08 0.15 0.22 0.24 0.25 0.23 0.20
0.00 0.00 0.00 0.00 0.01 0.01 0.01 0.01 0.02 0.02 0.03 0.03 0.03 0.03 0.02 0.02 0.03 0.04 0.04 0.03 0.03 0.02 0.02 0.03 0.03 0.04 0.04 0.04 0.06 0.07 0.08 0.11 0.14 0.10 0.04 0.02 0.04 0.10 0.15 0.16 0.17 0.17 0.17
0.00 0.00 0.00 0.00 0.01 0.01 0.02 0.02 0.02 0.03 0.03 0.03 0.03 0.02 0.02 0.03 0.03 0.03 0.02 0.01 0.02 0.02 0.03 0.04 0.05 0.05 0.04 0.04 0.06 0.07 0.08 0.10 0.12 0.11 0.06 0.03 0.07 0.15 0.21 0.21 0.18 0.19 0.19
0.00 0.00 0.00 0.01 0.01 0.02 0.02 0.03 0.03 0.03 0.03 0.02 0.02 0.01 0.01 0.02 0.02 0.01 0.01 0.01 0.02 0.02 0.03 0.05 0.07 0.07 0.06 0.07 0.08 0.08 0.10 0.10 0.09 0.09 0.06 0.04 0.08 0.14 0.18 0.24 0.23 0.18 0.17
0.00 0.01 0.01 0.01 0.01 0.02 0.03 0.03 0.02 0.01 0.01 0.01 0.01 0.01 0.01 0.01 0.00 0.00 0.00 0.00 0.01 0.02 0.03 0.06 0.07 0.07 0.09 0.08 0.06 0.06 0.08 0.09 0.10 0.10 0.07 0.06 0.08 0.14 0.17 0.17 0.16 0.19 0.17
0.01 0.01 0.01 0.01 0.01 0.02 0.02 0.01 0.01 0.01 0.01 0.01 0.01 0.01 0.01 0.00 0.00 0.00 0.00 0.00 0.01 0.02 0.04 0.05 0.03 0.02 0.03 0.02 0.03 0.05 0.07 0.09 0.12 0.12 0.10 0.09 0.08 0.11 0.13 0.14 0.13 0.17 0.16
0.01 0.01 0.01 0.00 0.01 0.01 0.00 0.00 0.01 0.01 0.01 0.01 0.01 0.01 0.01 0.01 0.00 0.00 0.00 0.00 0.01 0.02 0.04 0.03 0.01 0.01 0.01 0.01 0.02 0.05 0.09 0.15 0.17 0.15 0.12 0.08 0.07 0.08 0.10 0.15 0.14 0.15 0.17
0.00 0.00 0.00 0.00 0.00 0.00 0.00 0.01 0.01 0.01 0.01 0.01 0.01 0.01 0.01 0.01 0.00 0.00 0.00 0.00 0.01 0.02 0.02 0.02 0.02 0.01 0.01 0.02 0.05 0.11 0.13 0.14 0.16 0.16 0.12 0.08 0.07 0.07 0.08 0.10 0.09 0.13 0.13
0.00 0.00 0.00 0.00 0.00 0.00 0.01 0.01 0.01 0.01 0.01 0.01 0.01 0.01 0.01 0.01 0.00 0.00 0.00 0.00 0.00 0.01 0.01 0.01 0.02 0.01 0.02 0.04 0.08 0.13 0.16 0.22 0.30 0.34 0.27 0.18 0.18 0.16 0.09 0.06 0.07 0.11 0.12
0.00 0.00 0.00 0.00 0.00 0.01 0.01 0.01 0.01 0.01 0.01 0.00 0.01 0.01 0.01 0.00 0.00 0.00 0.00 0.00 0.00 0.00 0.01 0.01 0.02 0.03 0.04 0.06 0.10 0.16 0.22 0.28 0.39 0.44 0.29 0.22 0.20 0.19 0.16 0.08 0.10 0.16 0.13
0.00 0.00 0.00 0.00 0.00 0.00 0.00 0.01 0.01 0.01 0.00 0.00 0.00 0.01 0.01 0.00 0.00 0.00 0.00 0.00 0.00 0.00 0.01 0.01 0.02 0.06 0.06 0.07 0.13 0.20 0.29 0.33 0.38 0.41 0.26 0.18 0.17 0.15 0.14 0.15 0.15 0.12 0.06
0.00 0.00 0.00 0.00 0.00 0.00 0.00 0.00 0.00 0.00 0.00 0.00 0.00 0.00 0.00 0.00 0.00 0.00 0.00 0.00 0.00 0.01 0.02 0.03 0.06 0.10 0.07 0.09 0.17 0.27 0.34 0.37 0.32 0.29 0.22 0.16 0.13 0.14 0.16 0.14 0.09 0.05 0.02
0.00 0.00 0.00 0.00 0.00 0.00 0.00 0.00 0.00 0.00 0.00 0.00 0.00 0.00 0.00 0.00 0.00 0.00 0.00 0.00 0.00 0.01 0.04 0.11 0.14 0.10 0.10 0.16 0.27 0.36 0.37 0.34 0.29 0.25 0.23 0.18 0.10 0.09 0.10 0.09 0.06 0.02 0.02
0.00 0.00 0.00 0.00 0.00 0.00 0.00 0.00 0.00 0.00 0.00 0.00 0.00 0.00 0.00 0.01 0.01 0.01 0.01 0.01 0.01 0.01 0.04 0.11 0.13 0.10 0.15 0.25 0.35 0.39 0.39 0.39 0.35 0.30 0.26 0.18 0.12 0.08 0.06 0.04 0.03 0.02 0.03
0.00 0.00 0.00 0.00 0.00 0.00 0.00 0.00 0.00 0.00 0.00 0.00 0.00 0.00 0.01 0.02 0.01 0.01 0.01 0.01 0.02 0.04 0.05 0.07 0.06 0.07 0.14 0.24 0.34 0.38 0.37 0.39 0.41 0.35 0.28 0.21 0.15 0.10 0.08 0.05 0.04 0.04 0.04
0.00 0.00 0.00 0.00 0.00 0.00 0.00 0.00 0.00 0.00 0.00 0.00 0.00 0.00 0.01 0.01 0.01 0.01 0.01 0.01 0.03 0.05 0.05 0.07 0.10 0.13 0.17 0.24 0.32 0.39 0.39 0.37 0.38 0.37 0.32 0.26 0.19 0.13 0.11 0.08 0.06 0.06 0.06
0.00 0.00 0.00 0.00 0.00 0.00 0.00 0.00 0.00 0.00 0.00 0.00 0.00 0.00 0.00 0.01 0.01 0.01 0.01 0.01 0.02 0.04 0.06 0.10 0.17 0.20 0.23 0.27 0.30 0.33 0.38 0.38 0.34 0.32 0.29 0.26 0.20 0.14 0.11 0.10 0.07 0.06 0.05
0.00 0.00 0.00 0.00 0.00 0.00 0.00 0.00 0.00 0.00 0.01 0.00 0.00 0.00 0.00 0.01 0.02 0.01 0.02 0.01 0.02 0.04 0.08 0.13 0.19 0.22 0.25 0.28 0.29 0.28 0.31 0.33 0.30 0.25 0.21 0.19 0.17 0.14 0.11 0.09 0.05 0.03 0.02
0.00 0.00 0.00 0.00 0.00 0.00 0.00 0.00 0.00 0.00 0.00 0.00 0.00 0.00 0.01 0.01 0.02 0.03 0.04 0.02 0.03 0.04 0.08 0.13 0.18 0.20 0.20 0.21 0.23 0.23 0.25 0.26 0.24 0.21 0.18 0.16 0.14 0.12 0.09 0.06 0.03 0.01 0.01
0.00 0.00 0.00 0.00 0.00 0.00 0.00 0.00 0.00 0.00 0.00 0.01 0.01 0.01 0.01 0.02 0.03 0.04 0.03 0.03 0.03 0.04 0.06 0.11 0.16 0.18 0.17 0.15 0.14 0.15 0.16 0.17 0.16 0.14 0.13 0.12 0.11 0.09 0.06 0.04 0.02 0.02 0.01
0.00 0.00 0.00 0.00 0.00 0.00 0.00 0.00 0.00 0.00 0.01 0.01 0.01 0.02 0.04 0.04 0.05 0.06 0.06 0.06 0.05 0.05 0.05 0.07 0.11 0.15 0.16 0.15 0.12 0.10 0.10 0.11 0.10 0.08 0.07 0.06 0.07 0.06 0.05 0.03 0.02 0.01 0.00
0.00 0.00 0.00 0.00 0.00 0.00 0.00 0.00 0.00 0.00 0.00 0.01 0.01 0.02 0.05 0.05 0.06 0.08 0.09 0.09 0.09 0.08 0.06 0.06 0.06 0.09 0.11 0.12 0.12 0.10 0.09 0.09 0.07 0.06 0.05 0.06 0.05 0.04 0.03 0.03 0.01 0.00 0.00
0.00 0.00 0.00 0.00 0.00 0.00 0.00 0.00 0.00 0.00 0.00 0.01 0.01 0.02 0.03 0.05 0.08 0.11 0.13 0.13 0.12 0.12 0.10 0.08 0.09 0.11 0.11 0.10 0.10 0.09 0.08 0.07 0.06 0.06 0.07 0.07 0.06 0.04 0.03 0.02 0.01 0.00 0.00
0.00 0.00 0.00 0.00 0.00 0.00 0.00 0.00 0.00 0.00 0.00 0.00 0.01 0.02 0.03 0.05 0.08 0.11 0.13 0.13 0.13 0.15 0.16 0.17 0.17 0.16 0.15 0.12 0.11 0.11 0.11 0.12 0.10 0.10 0.08 0.06 0.04 0.04 0.03 0.02 0.01 0.00 0.00
0.00 0.00 0.00 0.00 0.00 0.00 0.00 0.00 0.00 0.00 0.00 0.00 0.01 0.01 0.03 0.04 0.05 0.07 0.09 0.10 0.11 0.12 0.15 0.17 0.18 0.17 0.16 0.14 0.11 0.10 0.11 0.11 0.08 0.09 0.09 0.05 0.04 0.03 0.03 0.01 0.01 0.01 0.00
0.00 0.00 0.00 0.00 0.00 0.00 0.00 0.00 0.00 0.00 0.00 0.00 0.00 0.01 0.02 0.03 0.05 0.07 0.08 0.08 0.08 0.09 0.11 0.14 0.16 0.12 0.09 0.08 0.07 0.06 0.05 0.03 0.03 0.04 0.07 0.06 0.04 0.03 0.03 0.02 0.01 0.00 0.00

GEFSGL_prec_meanprecacc_018.txt.gz
Total_Precipitation_Accumulation
0.00 0.00 0.00 0.00 0.00 0.00 0.00 0.01 0.01 0.01 0.02 0.03 0.03 0.03 0.03 0.02 0.02 0.03 0.05 0.05 0.04 0.03 0.03 0.03 0.03 0.03 0.04 0.05 0.07 0.08 0.10 0.15 0.17 0.08 0.04 0.04 0.08 0.15 0.22 0.24 0.25 0.24 0.21
0.00 0.00 0.00 0.00 0.01 0.01 0.01 0.01 0.02 0.02 0.03 0.03 0.03 0.03 0.02 0.02 0.03 0.04 0.04 0.03 0.03 0.02 0.02 0.03 0.03 0.04 0.04 0.04 0.06 0.07 0.09 0.13 0.18 0.14 0.06 0.03 0.05 0.10 0.15 0.16 0.17 0.18 0.19
0.00 0.00 0.00 0.00 0.01 0.01 0.02 0.02 0.02 0.03 0.03 0.03 0.03 0.02 0.02 0.03 0.03 0.03 0.02 0.01 0.02 0.02 0.03 0.04 0.05 0.05 0.04 0.05 0.06 0.08 0.10 0.12 0.15 0.15 0.07 0.04 0.08 0.15 0.21 0.21 0.18 0.20 0.20
0.00 0.00 0.00 0.01 0.01 0.02 0.02 0.03 0.03 0.03 0.03 0.02 0.02 0.01 0.01 0.02 0.02 0.01 0.01 0.01 0.02 0.02 0.03 0.05 0.07 0.07 0.07 0.08 0.09 0.10 0.12 0.12 0.10 0.10 0.07 0.05 0.09 0.15 0.18 0.25 0.25 0.20 0.19
0.00 0.01 0.01 0.01 0.01 0.02 0.03 0.03 0.02 0.01 0.01 0.01 0.01 0.01 0.01 0.01 0.00 0.00 0.00 0.00 0.01 0.02 0.03 0.06 0.07 0.07 0.10 0.10 0.09 0.09 0.10 0.11 0.11 0.11 0.09 0.07 0.09 0.14 0.18 0.19 0.20 0.23 0.20
0.01 0.01 0.01 0.01 0.01 0.02 0.02 0.01 0.01 0.01 0.01 0.01 0.01 0.01 0.01 0.00 0.00 0.00 0.00 0.00 0.01 0.02 0.04 0.05 0.03 0.02 0.03 0.03 0.05 0.07 0.10 0.12 0.14 0.15 0.13 0.11 0.09 0.12 0.16 0.19 0.19 0.22 0.19
0.01 0.01 0.01 0.00 0.01 0.01 0.00 0.00 0.01 0.01 0.01 0.01 0.01 0.01 0.01 0.01 0.00 0.00 0.00 0.00 0.01 0.02 0.04 0.03 0.01 0.01 0.01 0.01 0.03 0.06 0.10 0.16 0.20 0.22 0.20 0.13 0.11 0.12 0.16 0.21 0.18 0.18 0.20
0.00 0.00 0.00 0.00 0.00 0.00 0.00 0.01 0.01 0.01 0.01 0.01 0.01 0.01 0.01 0.01 0.00 0.00 0.00 0.00 0.01 0.02 0.02 0.02 0.02 0.01 0.02 0.03 0.05 0.11 0.13 0.15 0.20 0.23 0.21 0.16 0.14 0.14 0.14 0.15 0.13 0.16 0.15
0.00 0.00 0.00 0.00 0.00 0.00 0.01 0.01 0.01 0.01 0.01 0.01 0.01 0.01 0.01 0.01 0.00 0.00 0.00 0.00 0.00 0.01 0.01 0.01 0.02 0.01 0.03 0.06 0.09 0.14 0.17 0.24 0.37 0.48 0.41 0.30 0.27 0.23 0.14 0.09 0.10 0.14 0.16
0.00 0.00 0.00 0.00 0.00 0.01 0.01 0.01 0.01 0.01 0.01 0.00 0.01 0.01 0.01 0.00 0.00 0.00 0.00 0.00 0.00 0.00 0.01 0.01 0.02 0.03 0.05 0.07 0.11 0.17 0.25 0.35 0.52 0.64 0.47 0.33 0.27 0.24 0.21 0.12 0.14 0.21 0.19
0.00 0.00 0.00 0.00 0.00 0.00 0.00 0.01 0.01 0.01 0.00 0.00 0.00 0.01 0.01 0.00 0.00 0.00 0.01 0.01 0.01 0.01 0.01 0.02 0.03 0.08 0.07 0.08 0.15 0.25 0.38 0.47 0.57 0.64 0.44 0.27 0.21 0.17 0.18 0.21 0.20 0.17 0.10
0.00 0.00 0.00 0.00 0.00 0.00 0.00 0.00 0.00 0.00 0.00 0.00 0.00 0.00 0.00 0.00 0.00 0.00 0.00 0.01 0.02 0.03 0.05 0.07 0.10 0.13 0.09 0.12 0.23 0.38 0.49 0.56 0.53 0.50 0.35 0.23 0.16 0.17 0.19 0.17 0.12 0.06 0.03
0.00 0.00 0.00 0.00 0.00 0.00 0.00 0.00 0.00 0.00 0.00 0.00 0.00 0.00 0.00 0.00 0.01 0.01 0.00 0.01 0.02 0.04 0.08 0.15 0.17 0.13 0.15 0.23 0.39 0.53 0.56 0.55 0.49 0.39 0.31 0.23 0.13 0.11 0.11 0.10 0.06 0.03 0.02
0.00 0.00 0.00 0.00 0.00 0.00 0.00 0.00 0.00 0.00 0.00 0.00 0.00 0.01 0.01 0.01 0.01 0.02 0.02 0.02 0.03 0.04 0.06 0.13 0.16 0.16 0.25 0.40 0.53 0.57 0.59 0.60 0.52 0.38 0.30 0.22 0.13 0.09 0.07 0.05 0.04 0.04 0.05
0.00 0.00 0.00 0.00 0.00 0.00 0.00 0.00 0.00 0.00 0.00 0.00 0.01 0.01 0.02 0.03 0.03 0.03 0.04 0.05 0.06 0.07 0.07 0.09 0.10 0.14 0.27 0.41 0.52 0.55 0.55 0.57 0.53 0.40 0.31 0.23 0.16 0.11 0.09 0.06 0.05 0.06 0.07
0.00 0.00 0.00 0.00 0.00 0.00 0.00 0.00 0.00 0.00 0.00 0.00 0.01 0.02 0.02 0.03 0.02 0.02 0.03 0.05 0.07 0.09 0.09 0.13 0.17 0.23 0.31 0.41 0.50 0.57 0.55 0.49 0.45 0.40 0.34 0.27 0.20 0.14 0.12 0.11 0.09 0.08 0.09
0.00 0.00 0.00 0.00 0.00 0.00 0.00 0.00 0.00 0.00 0.00 0.00 0.01 0.01 0.01 0.02 0.02 0.02 0.02 0.03 0.05 0.08 0.11 0.18 0.27 0.33 0.38 0.43 0.46 0.48 0.51 0.48 0.41 0.35 0.31 0.27 0.22 0.16 0.13 0.12 0.10 0.08 0.07
0.00 0.00 0.00 0.00 0.00 0.00 0.00 0.00 0.00 0.00 0.01 0.01 0.00 0.01 0.01 0.02 0.03 0.02 0.03 0.02 0.03 0.07 0.15 0.24 0.32 0.36 0.40 0.44 0.44 0.41 0.43 0.43 0.37 0.29 0.24 0.21 0.19 0.16 0.14 0.11 0.07 0.04 0.03
0.00 0.00 0.00 0.00 0.00 0.00 0.00 0.00 0.00 0.00 0.01 0.01 0.01 0.01 0.01 0.02 0.03 0.04 0.05 0.03 0.05 0.09 0.16 0.26 0.32 0.35 0.35 0.36 0.37 0.36 0.36 0.35 0.31 0.25 0.21 0.19 0.17 0.15 0.12 0.08 0.04 0.02 0.01
0.00 0.00 0.00 0.00 0.00 0.00 0.00 0.00 0.00 0.00 0.01 0.02 0.02 0.02 0.02 0.04 0.05 0.06 0.05 0.05 0.06 0.09 0.15 0.24 0.31 0.32 0.29 0.26 0.25 0.26 0.26 0.25 0.23 0.20 0.18 0.16 0.14 0.12 0.09 0.05 0.03 0.02 0.01
0.00 0.00 0.00 0.00 0.00 0.00 0.00 0.00 0.00 0.00 0.01 0.01 0.02 0.03 0.06 0.06 0.08 0.10 0.11 0.11 0.11 0.11 0.14 0.18 0.24 0.27 0.27 0.23 0.20 0.17 0.17 0.17 0.16 0.14 0.12 0.11 0.10 0.09 0.07 0.04 0.03 0.01 0.00
0.00 0.00 0.00 0.00 0.00 0.00 0.00 0.00 0.00 0.00 0.01 0.01 0.02 0.03 0.07 0.07 0.09 0.12 0.14 0.16 0.16 0.15 0.14 0.14 0.16 0.19 0.19 0.19 0.17 0.15 0.14 0.13 0.12 0.10 0.10 0.10 0.08 0.06 0.05 0.03 0.01 0.01 0.00
0.00 0.00 0.00 0.00 0.00 0.00 0.00 0.00 0.00 0.00 0.00 0.01 0.02 0.03 0.05 0.07 0.11 0.15 0.17 0.18 0.17 0.18 0.16 0.14 0.16 0.19 0.18 0.16 0.15 0.14 0.12 0.11 0.10 0.09 0.10 0.10 0.08 0.06 0.04 0.02 0.01 0.00 0.00
0.00 0.00 0.00 0.00 0.00 0.00 0.00 0.00 0.00 0.00 0.00 0.00 0.01 0.02 0.04 0.06 0.10 0.13 0.16 0.18 0.18 0.19 0.21 0.23 0.24 0.23 0.21 0.17 0.15 0.14 0.14 0.14 0.12 0.12 0.10 0.08 0.06 0.05 0.03 0.02 0.01 0.00 0.00
0.00 0.00 0.00 0.00 0.00 0.00 0.00 0.00 0.00 0.00 0.00 0.00 0.01 0.02 0.03 0.04 0.06 0.08 0.11 0.14 0.15 0.17 0.20 0.23 0.24 0.22 0.20 0.16 0.13 0.11 0.12 0.12 0.10 0.10 0.10 0.06 0.05 0.04 0.03 0.02 0.01 0.01 0.00
0.00 0.00 0.00 0.00 0.00 0.00 0.00 0.00 0.00 0.00 0.00 0.00 0.00 0.01 0.02 0.03 0.05 0.07 0.09 0.09 0.10 0.12 0.15 0.19 0.22 0.17 0.12 0.09 0.08 0.07 0.06 0.04 0.03 0.05 0.08 0.06 0.05 0.04 0.03 0.02 0.01 0.00 0.00

GEFSGL_prec_meanprecacc_024.txt.gz
Total_Precipitation_Accumulation
0.01 0.01 0.01 0.00 0.00 0.00 0.00 0.01 0.01 0.01 0.02 0.03 0.03 0.03 0.03 0.02 0.02 0.04 0.05 0.05 0.05 0.04 0.04 0.04 0.04 0.04 0.05 0.05 0.07 0.09 0.11 0.17 0.19 0.10 0.05 0.05 0.10 0.17 0.24 0.27 0.27 0.25 0.22
0.02 0.01 0.00 0.00 0.01 0.01 0.01 0.01 0.02 0.02 0.03 0.03 0.03 0.03 0.02 0.02 0.03 0.04 0.04 0.03 0.03 0.03 0.03 0.04 0.04 0.04 0.05 0.05 0.06 0.08 0.10 0.15 0.22 0.18 0.09 0.05 0.07 0.12 0.17 0.18 0.18 0.19 0.20
0.01 0.00 0.00 0.00 0.01 0.01 0.02 0.02 0.02 0.03 0.03 0.04 0.03 0.03 0.02 0.03 0.04 0.03 0.03 0.02 0.03 0.03 0.04 0.04 0.05 0.06 0.05 0.05 0.07 0.09 0.11 0.15 0.20 0.21 0.11 0.07 0.10 0.16 0.22 0.23 0.20 0.23 0.22
0.00 0.00 0.00 0.01 0.01 0.02 0.02 0.03 0.03 0.03 0.03 0.02 0.02 0.02 0.02 0.03 0.02 0.02 0.01 0.02 0.02 0.03 0.04 0.06 0.07 0.07 0.07 0.09 0.10 0.12 0.15 0.16 0.16 0.16 0.11 0.07 0.10 0.16 0.20 0.27 0.27 0.23 0.22
0.00 0.01 0.01 0.01 0.01 0.02 0.03 0.03 0.02 0.02 0.01 0.01 0.01 0.01 0.02 0.02 0.01 0.00 0.00 0.01 0.01 0.02 0.03 0.06 0.07 0.07 0.11 0.12 0.11 0.12 0.16 0.17 0.17 0.17 0.13 0.10 0.10 0.16 0.20 0.24 0.24 0.27 0.24
0.01 0.01 0.01 0.01 0.01 0.02 0.02 0.01 0.01 0.01 0.01 0.01 0.01 0.01 0.01 0.01 0.00 0.00 0.00 0.00 0.01 0.02 0.04 0.05 0.03 0.03 0.03 0.04 0.07 0.10 0.14 0.17 0.20 0.21 0.18 0.14 0.11 0.14 0.20 0.26 0.26 0.27 0.23
0.01 0.01 0.01 0.00 0.01 0.01 0.00 0.00 0.01 0.01 0.01 0.01 0.01 0.01 0.01 0.01 0.00 0.00 0.00 0.00 0.01 0.03 0.05 0.03 0.02 0.01 0.02 0.03 0.05 0.08 0.12 0.17 0.23 0.27 0.24 0.16 0.14 0.16 0.25 0.31 0.26 0.25 0.26
0.01 0.00 0.00 0.00 0.00 0.00 0.00 0.01 0.01 0.01 0.01 0.01 0.01 0.01 0.01 0.01 0.00 0.00 0.00 0.00 0.01 0.03 0.03 0.03 0.03 0.02 0.03 0.05 0.07 0.12 0.14 0.16 0.23 0.28 0.27 0.23 0.23 0.22 0.24 0.25 0.22 0.23 0.20
0.00 0.00 0.00 0.00 0.00 0.00 0.01 0.01 0.01 0.01 0.01 0.01 0.01 0.01 0.01 0.01 0.00 0.00 0.00 0.01 0.01 0.01 0.02 0.02 0.04 0.03 0.05 0.08 0.11 0.16 0.19 0.25 0.42 0.57 0.54 0.46 0.43 0.36 0.24 0.17 0.17 0.20 0.21
0.00 0.00 0.00 0.00 0.00 0.01 0.01 0.01 0.01 0.01 0.01 0.00 0.01 0.01 0.01 0.01 0.00 0.00 0.01 0.01 0.01 0.01 0.01 0.01 0.03 0.05 0.06 0.09 0.14 0.20 0.27 0.38 0.59 0.77 0.65 0.52 0.42 0.35 0.29 0.19 0.20 0.28 0.26
0.00 0.00 0.00 0.00 0.00 0.00 0.00 0.01 0.01 0.01 0.00 0.00 0.01 0.01 0.01 0.01 0.01 0.00 0.01 0.02 0.03 0.03 0.03 0.03 0.05 0.10 0.10 0.11 0.19 0.29 0.43 0.53 0.67 0.79 0.61 0.41 0.31 0.23 0.22 0.24 0.24 0.21 0.14
0.00 0.00 0.00 0.00 0.00 0.00 0.00 0.00 0.00 0.00 0.00 0.00 0.00 0.01 0.01 0.01 0.01 0.00 0.00 0.01 0.03 0.04 0.07 0.09 0.13 0.17 0.14 0.18 0.29 0.45 0.59 0.67 0.66 0.65 0.48 0.30 0.20 0.19 0.22 0.20 0.14 0.08 0.05
0.00 0.00 0.00 0.00 0.00 0.00 0.00 0.00 0.00 0.00 0.00 0.00 0.00 0.01 0.01 0.01 0.01 0.01 0.01 0.01 0.03 0.05 0.10 0.19 0.23 0.21 0.25 0.33 0.50 0.64 0.69 0.67 0.62 0.49 0.36 0.27 0.16 0.13 0.14 0.13 0.09 0.05 0.05
0.00 0.00 0.00 0.00 0.00 0.00 0.00 0.00 0.00 0.00 0.00 0.01 0.01 0.02 0.02 0.02 0.02 0.03 0.03 0.03 0.05 0.05 0.08 0.18 0.26 0.29 0.40 0.54 0.64 0.68 0.69 0.71 0.61 0.43 0.33 0.25 0.16 0.13 0.11 0.10 0.08 0.08 0.09
0.00 0.00 0.00 0.00 0.00 0.00 0.00 0.00 0.00 0.01 0.01 0.01 0.02 0.03 0.04 0.05 0.04 0.04 0.05 0.07 0.08 0.09 0.10 0.14 0.18 0.26 0.40 0.53 0.62 0.64 0.63 0.64 0.58 0.43 0.34 0.26 0.20 0.15 0.14 0.11 0.10 0.09 0.11
0.00 0.00 0.00 0.00 0.00 0.00 0.00 0.00 0.00 0.00 0.00 0.01 0.02 0.03 0.04 0.05 0.04 0.03 0.04 0.06 0.09 0.12 0.13 0.20 0.28 0.35 0.44 0.53 0.60 0.64 0.61 0.54 0.48 0.43 0.37 0.30 0.24 0.19 0.17 0.15 0.12 0.11 0.12
0.00 0.00 0.00 0.00 0.00 0.00 0.00 0.00 0.01 0.01 0.01 0.01 0.01 0.02 0.02 0.03 0.03 0.02 0.02 0.04 0.07 0.12 0.16 0.27 0.38 0.45 0.49 0.53 0.54 0.53 0.55 0.52 0.44 0.38 0.34 0.31 0.26 0.20 0.18 0.16 0.14 0.12 0.11
0.00 0.00 0.00 0.00 0.00 0.00 0.00 0.01 0.01 0.02 0.02 0.02 0.01 0.01 0.01 0.03 0.04 0.03 0.03 0.03 0.05 0.10 0.21 0.34 0.43 0.47 0.50 0.52 0.50 0.46 0.47 0.47 0.40 0.32 0.27 0.25 0.24 0.20 0.17 0.15 0.11 0.08 0.06
0.00 0.00 0.00 0.00 0.00 0.00 0.00 0.01 0.01 0.01 0.02 0.02 0.02 0.01 0.02 0.03 0.04 0.05 0.06 0.05 0.08 0.15 0.24 0.34 0.41 0.44 0.43 0.44 0.44 0.42 0.41 0.39 0.35 0.29 0.26 0.24 0.22 0.19 0.15 0.11 0.07 0.04 0.03
0.00 0.00 0.00 0.00 0.00 0.00 0.00 0.00 0.01 0.01 0.02 0.03 0.03 0.03 0.03 0.05 0.06 0.07 0.07 0.07 0.10 0.15 0.22 0.31 0.38 0.39 0.36 0.33 0.31 0.30 0.30 0.29 0.27 0.25 0.23 0.22 0.20 0.17 0.13 0.09 0.06 0.04 0.02
0.00 0.00 0.00 0.00 0.00 0.00 0.00 0.00 0.01 0.01 0.02 0.02 0.03 0.04 0.07 0.07 0.10 0.12 0.13 0.15 0.16 0.18 0.20 0.24 0.29 0.32 0.31 0.28 0.24 0.21 0.21 0.22 0.21 0.19 0.17 0.16 0.15 0.13 0.10 0.07 0.05 0.03 0.01
0.00 0.00 0.00 0.00 0.00 0.00 0.00 0.00 0.00 0.01 0.01 0.02 0.02 0.03 0.08 0.08 0.10 0.14 0.18 0.20 0.22 0.22 0.20 0.20 0.21 0.23 0.24 0.23 0.22 0.19 0.18 0.18 0.17 0.15 0.14 0.14 0.12 0.10 0.07 0.05 0.03 0.02 0.01
0.00 0.00 0.00 0.00 0.00 0.00 0.00 0.00 0.00 0.00 0.01 0.01 0.02 0.03 0.05 0.08 0.12 0.18 0.22 0.23 0.23 0.24 0.21 0.19 0.21 0.24 0.23 0.20 0.18 0.18 0.17 0.16 0.15 0.14 0.14 0.14 0.12 0.09 0.06 0.04 0.02 0.01 0.01
0.00 0.00 0.00 0.00 0.00 0.00 0.00 0.00 0.00 0.00 0.00 0.00 0.01 0.02 0.04 0.07 0.11 0.15 0.20 0.23 0.24 0.26 0.26 0.27 0.28 0.29 0.25 0.21 0.18 0.17 0.17 0.17 0.16 0.17 0.15 0.12 0.09 0.07 0.05 0.03 0.02 0.01 0.01
0.00 0.00 0.00 0.00 0.00 0.00 0.00 0.00 0.00 0.00 0.00 0.00 0.01 0.02 0.03 0.04 0.06 0.09 0.12 0.16 0.19 0.22 0.25 0.28 0.28 0.27 0.24 0.20 0.15 0.13 0.15 0.15 0.13 0.14 0.15 0.10 0.08 0.07 0.05 0.03 0.02 0.01 0.01
0.00 0.00 0.00 0.00 0.00 0.00 0.00 0.00 0.00 0.00 0.00 0.00 0.00 0.01 0.02 0.03 0.05 0.08 0.09 0.10 0.11 0.14 0.19 0.24 0.27 0.20 0.14 0.11 0.10 0.09 0.08 0.06 0.05 0.06 0.12 0.11 0.08 0.07 0.05 0.04 0.02 0.01 0.01

GEFSGL_prec_meanprecacc_030.txt.gz
Total_Precipitation_Accumulation
0.06 0.04 0.03 0.02 0.01 0.01 0.01 0.01 0.01 0.01 0.02 0.03 0.03 0.03 0.03 0.02 0.03 0.04 0.06 0.07 0.07 0.06 0.07 0.07 0.07 0.07 0.09 0.09 0.09 0.11 0.12 0.18 0.21 0.11 0.05 0.06 0.11 0.18 0.26 0.29 0.30 0.28 0.25
0.06 0.04 0.02 0.02 0.01 0.01 0.01 0.01 0.02 0.02 0.03 0.03 0.04 0.03 0.03 0.03 0.04 0.06 0.06 0.06 0.06 0.06 0.06 0.07 0.07 0.07 0.08 0.07 0.08 0.09 0.11 0.16 0.23 0.20 0.10 0.06 0.09 0.15 0.20 0.21 0.21 0.20 0.22
0.05 0.02 0.01 0.01 0.01 0.01 0.02 0.02 0.02 0.03 0.04 0.04 0.03 0.03 0.03 0.04 0.06 0.06 0.06 0.05 0.06 0.06 0.06 0.07 0.07 0.08 0.07 0.06 0.08 0.10 0.12 0.16 0.21 0.23 0.14 0.09 0.12 0.19 0.26 0.25 0.22 0.26 0.24
0.03 0.02 0.02 0.02 0.02 0.02 0.03 0.03 0.03 0.04 0.04 0.03 0.03 0.03 0.04 0.05 0.04 0.03 0.03 0.03 0.04 0.04 0.05 0.07 0.08 0.08 0.09 0.11 0.12 0.13 0.16 0.18 0.19 0.20 0.15 0.10 0.13 0.18 0.24 0.31 0.31 0.28 0.27
0.04 0.03 0.03 0.02 0.02 0.03 0.04 0.04 0.03 0.03 0.03 0.03 0.03 0.03 0.03 0.03 0.01 0.00 0.00 0.01 0.01 0.02 0.04 0.07 0.08 0.08 0.12 0.13 0.13 0.14 0.18 0.21 0.22 0.22 0.17 0.14 0.13 0.19 0.24 0.28 0.29 0.30 0.27
0.05 0.04 0.03 0.02 0.02 0.03 0.03 0.03 0.03 0.04 0.03 0.03 0.02 0.01 0.01 0.01 0.00 0.00 0.00 0.00 0.01 0.02 0.05 0.06 0.04 0.04 0.05 0.05 0.08 0.13 0.18 0.22 0.25 0.27 0.23 0.18 0.14 0.17 0.24 0.30 0.31 0.32 0.26
0.08 0.05 0.04 0.03 0.03 0.03 0.02 0.02 0.03 0.02 0.02 0.02 0.01 0.01 0.01 0.01 0.00 0.00 0.00 0.00 0.02 0.04 0.07 0.06 0.04 0.03 0.04 0.07 0.09 0.12 0.15 0.21 0.27 0.32 0.29 0.20 0.17 0.20 0.30 0.37 0.32 0.32 0.32
0.09 0.06 0.04 0.03 0.03 0.02 0.02 0.02 0.02 0.02 0.02 0.02 0.02 0.01 0.02 0.01 0.00 0.00 0.00 0.01 0.02 0.04 0.05 0.05 0.06 0.06 0.07 0.09 0.11 0.15 0.16 0.18 0.25 0.32 0.31 0.27 0.27 0.28 0.33 0.34 0.31 0.32 0.27
0.07 0.05 0.03 0.02 0.02 0.02 0.02 0.02 0.02 0.02 0.02 0.01 0.01 0.01 0.02 0.02 0.00 0.00 0.00 0.01 0.02 0.02 0.03 0.04 0.06 0.06 0.08 0.09 0.14 0.19 0.21 0.27 0.44 0.61 0.58 0.51 0.50 0.46 0.34 0.27 0.27 0.30 0.30
0.03 0.02 0.01 0.01 0.01 0.01 0.01 0.02 0.02 0.02 0.01 0.01 0.01 0.02 0.03 0.03 0.01 0.00 0.01 0.02 0.02 0.02 0.02 0.02 0.04 0.07 0.08 0.11 0.16 0.23 0.31 0.40 0.62 0.81 0.71 0.61 0.52 0.47 0.41 0.29 0.31 0.39 0.36
0.02 0.01 0.01 0.01 0.00 0.01 0.01 0.01 0.02 0.01 0.01 0.01 0.02 0.02 0.03 0.02 0.02 0.00 0.01 0.02 0.03 0.04 0.04 0.05 0.08 0.13 0.12 0.14 0.22 0.32 0.46 0.56 0.71 0.85 0.68 0.49 0.39 0.31 0.31 0.32 0.33 0.31 0.25
0.01 0.01 0.01 0.01 0.00 0.00 0.01 0.01 0.01 0.01 0.01 0.01 0.01 0.02 0.02 0.03 0.02 0.01 0.00 0.01 0.03 0.05 0.09 0.11 0.16 0.20 0.18 0.22 0.33 0.49 0.63 0.72 0.71 0.71 0.55 0.37 0.27 0.25 0.27 0.26 0.20 0.15 0.14
0.01 0.01 0.01 0.00 0.00 0.00 0.00 0.00 0.01 0.01 0.01 0.01 0.01 0.02 0.02 0.02 0.03 0.01 0.01 0.01 0.03 0.06 0.13 0.23 0.27 0.25 0.30 0.39 0.55 0.69 0.75 0.73 0.68 0.56 0.42 0.32 0.22 0.19 0.19 0.19 0.16 0.13 0.13
0.01 0.01 0.01 0.01 0.00 0.00 0.00 0.00 0.01 0.01 0.01 0.02 0.02 0.03 0.04 0.04 0.04 0.03 0.03 0.04 0.05 0.07 0.11 0.23 0.34 0.37 0.47 0.61 0.71 0.74 0.74 0.76 0.67 0.48 0.37 0.29 0.21 0.17 0.17 0.15 0.15 0.15 0.16
0.00 0.00 0.01 0.01 0.01 0.01 0.00 0.00 0.01 0.01 0.01 0.02 0.03 0.04 0.07 0.07 0.05 0.04 0.06 0.07 0.09 0.12 0.14 0.19 0.23 0.31 0.46 0.60 0.68 0.70 0.68 0.69 0.63 0.48 0.38 0.30 0.24 0.20 0.19 0.16 0.15 0.15 0.18
0.01 0.01 0.01 0.00 0.00 0.00 0.01 0.01 0.01 0.00 0.00 0.01 0.02 0.04 0.05 0.06 0.04 0.03 0.04 0.07 0.10 0.15 0.17 0.24 0.33 0.40 0.50 0.60 0.67 0.71 0.67 0.60 0.54 0.48 0.42 0.35 0.29 0.25 0.23 0.20 0.17 0.17 0.18
0.00 0.00 0.00 0.00 0.00 0.00 0.01 0.02 0.03 0.03 0.01 0.01 0.01 0.02 0.03 0.03 0.03 0.02 0.03 0.05 0.08 0.14 0.19 0.31 0.43 0.50 0.55 0.60 0.61 0.60 0.62 0.58 0.50 0.43 0.40 0.37 0.31 0.26 0.23 0.21 0.18 0.16 0.16
0.00 0.00 0.00 0.00 0.00 0.00 0.01 0.02 0.03 0.04 0.05 0.05 0.03 0.01 0.01 0.03 0.04 0.03 0.04 0.04 0.06 0.12 0.24 0.39 0.48 0.53 0.56 0.59 0.56 0.53 0.54 0.53 0.46 0.38 0.34 0.32 0.30 0.25 0.22 0.19 0.16 0.12 0.10
0.00 0.00 0.00 0.00 0.00 0.00 0.01 0.01 0.02 0.03 0.04 0.05 0.04 0.02 0.02 0.03 0.04 0.06 0.07 0.06 0.10 0.17 0.27 0.38 0.46 0.49 0.48 0.49 0.49 0.48 0.47 0.46 0.41 0.36 0.33 0.31 0.29 0.24 0.20 0.14 0.10 0.07 0.06
0.00 0.00 0.00 0.00 0.00 0.00 0.01 0.01 0.02 0.03 0.04 0.05 0.04 0.03 0.03 0.06 0.07 0.08 0.08 0.09 0.12 0.18 0.25 0.35 0.41 0.42 0.40 0.37 0.36 0.36 0.36 0.36 0.34 0.32 0.30 0.29 0.27 0.23 0.18 0.12 0.09 0.07 0.05
0.00 0.00 0.00 0.00 0.00 0.00 0.00 0.01 0.01 0.02 0.03 0.04 0.04 0.04 0.08 0.09 0.12 0.14 0.16 0.18 0.19 0.21 0.23 0.26 0.32 0.35 0.34 0.32 0.28 0.26 0.26 0.28 0.27 0.25 0.24 0.22 0.20 0.18 0.14 0.10 0.07 0.04 0.03
0.00 0.00 0.00 0.00 0.00 0.00 0.00 0.00 0.00 0.01 0.02 0.02 0.03 0.04 0.08 0.09 0.12 0.17 0.22 0.25 0.27 0.26 0.23 0.22 0.24 0.26 0.27 0.27 0.25 0.23 0.22 0.22 0.22 0.21 0.20 0.18 0.16 0.13 0.10 0.07 0.05 0.03 0.02
0.00 0.00 0.00 0.00 0.00 0.00 0.00 0.00 0.00 0.00 0.01 0.01 0.02 0.03 0.05 0.09 0.14 0.20 0.26 0.27 0.27 0.27 0.24 0.21 0.24 0.28 0.27 0.23 0.21 0.20 0.19 0.19 0.18 0.19 0.19 0.18 0.14 0.11 0.08 0.05 0.03 0.02 0.02
0.00 0.00 0.00 0.00 0.00 0.00 0.00 0.00 0.00 0.00 0.00 0.00 0.01 0.03 0.04 0.07 0.12 0.18 0.23 0.26 0.27 0.28 0.29 0.30 0.31 0.31 0.27 0.23 0.20 0.18 0.18 0.19 0.18 0.20 0.19 0.16 0.12 0.09 0.06 0.03 0.02 0.01 0.01
0.00 0.00 0.00 0.00 0.00 0.00 0.00 0.00 0.00 0.00 0.00 0.00 0.01 0.02 0.03 0.04 0.07 0.10 0.15 0.19 0.22 0.24 0.27 0.30 0.30 0.29 0.25 0.21 0.16 0.13 0.15 0.16 0.14 0.16 0.19 0.15 0.11 0.08 0.05 0.03 0.02 0.01 0.01
0.00 0.00 0.00 0.00 0.00 0.00 0.00 0.00 0.00 0.00 0.00 0.00 0.00 0.01 0.02 0.03 0.05 0.08 0.10 0.12 0.13 0.16 0.20 0.26 0.28 0.22 0.15 0.11 0.10 0.10 0.08 0.06 0.05 0.07 0.14 0.15 0.11 0.09 0.07 0.04 0.02 0.01 0.01

GEFSGL_prec_meanprecacc_036.txt.gz
Total_Precipitation_Accumulation
0.07 0.06 0.05 0.05 0.04 0.04 0.03 0.03 0.02 0.02 0.02 0.03 0.03 0.03 0.03 0.02 0.03 0.04 0.06 0.07 0.07 0.07 0.07 0.07 0.07 0.08 0.09 0.09 0.10 0.11 0.13 0.19 0.22 0.11 0.05 0.06 0.11 0.18 0.26 0.29 0.30 0.28 0.25
0.08 0.06 0.05 0.04 0.04 0.03 0.03 0.03 0.03 0.03 0.03 0.03 0.04 0.03 0.03 0.03 0.04 0.06 0.06 0.06 0.07 0.07 0.07 0.07 0.07 0.07 0.08 0.07 0.08 0.09 0.11 0.16 0.24 0.20 0.10 0.06 0.09 0.15 0.20 0.22 0.21 0.20 0.22
0.06 0.04 0.03 0.02 0.02 0.02 0.03 0.03 0.03 0.03 0.04 0.04 0.04 0.04 0.04 0.05 0.06 0.06 0.06 0.06 0.06 0.06 0.06 0.07 0.08 0.08 0.07 0.06 0.08 0.10 0.12 0.16 0.22 0.23 0.14 0.10 0.12 0.19 0.26 0.26 0.22 0.26 0.25
0.04 0.03 0.03 0.02 0.03 0.03 0.04 0.04 0.04 0.05 0.05 0.05 0.04 0.04 0.05 0.06 0.05 0.03 0.03 0.03 0.04 0.04 0.05 0.07 0.08 0.09 0.09 0.11 0.12 0.13 0.16 0.19 0.19 0.21 0.16 0.11 0.14 0.18 0.24 0.31 0.31 0.28 0.27
0.05 0.04 0.04 0.04 0.04 0.05 0.06 0.06 0.06 0.06 0.05 0.05 0.05 0.05 0.04 0.03 0.01 0.00 0.00 0.01 0.01 0.02 0.04 0.07 0.08 0.09 0.13 0.15 0.14 0.16 0.20 0.23 0.24 0.24 0.20 0.16 0.15 0.20 0.25 0.29 0.30 0.31 0.27
0.08 0.08 0.07 0.06 0.06 0.07 0.07 0.07 0.07 0.07 0.06 0.04 0.03 0.02 0.02 0.01 0.00 0.00 0.00 0.00 0.01 0.02 0.05 0.06 0.04 0.04 0.05 0.06 0.10 0.16 0.22 0.26 0.30 0.31 0.27 0.22 0.16 0.19 0.26 0.32 0.34 0.35 0.29
0.14 0.12 0.10 0.09 0.09 0.09 0.07 0.06 0.05 0.04 0.03 0.02 0.02 0.01 0.01 0.01 0.00 0.00 0.00 0.00 0.02 0.04 0.07 0.06 0.04 0.03 0.05 0.07 0.10 0.14 0.17 0.23 0.31 0.37 0.34 0.23 0.20 0.23 0.35 0.43 0.39 0.38 0.36
0.17 0.15 0.13 0.11 0.10 0.08 0.06 0.05 0.03 0.02 0.02 0.02 0.02 0.01 0.02 0.01 0.00 0.00 0.00 0.01 0.02 0.04 0.05 0.06 0.07 0.06 0.07 0.10 0.11 0.16 0.17 0.19 0.27 0.34 0.34 0.29 0.30 0.32 0.39 0.42 0.38 0.38 0.31
0.17 0.13 0.10 0.07 0.06 0.05 0.04 0.03 0.02 0.02 0.02 0.01 0.01 0.02 0.02 0.03 0.00 0.00 0.00 0.01 0.02 0.02 0.03 0.04 0.06 0.07 0.08 0.11 0.15 0.21 0.22 0.28 0.45 0.63 0.62 0.56 0.56 0.53 0.42 0.34 0.35 0.39 0.37
0.09 0.06 0.04 0.03 0.02 0.02 0.02 0.02 0.02 0.02 0.01 0.01 0.01 0.02 0.03 0.04 0.01 0.00 0.01 0.02 0.02 0.02 0.02 0.02 0.05 0.08 0.09 0.13 0.17 0.25 0.33 0.42 0.64 0.83 0.73 0.65 0.56 0.53 0.48 0.36 0.39 0.48 0.45
0.03 0.02 0.01 0.01 0.01 0.01 0.01 0.01 0.02 0.01 0.01 0.01 0.02 0.02 0.03 0.03 0.02 0.00 0.01 0.02 0.03 0.04 0.04 0.05 0.08 0.14 0.14 0.15 0.23 0.33 0.49 0.59 0.74 0.87 0.70 0.52 0.42 0.35 0.35 0.38 0.39 0.39 0.34
0.01 0.01 0.01 0.01 0.00 0.00 0.01 0.01 0.01 0.01 0.01 0.01 0.01 0.02 0.02 0.03 0.02 0.01 0.00 0.01 0.03 0.05 0.10 0.13 0.17 0.22 0.19 0.24 0.34 0.50 0.66 0.75 0.73 0.73 0.57 0.40 0.30 0.29 0.32 0.31 0.26 0.22 0.22
0.01 0.01 0.01 0.01 0.00 0.00 0.00 0.00 0.01 0.01 0.01 0.01 0.02 0.02 0.02 0.03 0.03 0.01 0.01 0.01 0.04 0.07 0.14 0.25 0.29 0.27 0.32 0.41 0.57 0.71 0.77 0.75 0.70 0.58 0.45 0.35 0.25 0.23 0.23 0.24 0.21 0.19 0.19
0.01 0.01 0.01 0.01 0.01 0.00 0.00 0.00 0.01 0.01 0.01 0.02 0.02 0.03 0.04 0.04 0.04 0.03 0.03 0.04 0.06 0.08 0.12 0.25 0.35 0.38 0.49 0.63 0.73 0.76 0.76 0.78 0.69 0.51 0.40 0.32 0.25 0.21 0.20 0.19 0.19 0.19 0.22
0.01 0.01 0.01 0.01 0.01 0.01 0.00 0.00 0.01 0.01 0.01 0.02 0.03 0.04 0.07 0.07 0.05 0.05 0.06 0.08 0.10 0.13 0.16 0.19 0.24 0.32 0.48 0.62 0.70 0.72 0.70 0.71 0.66 0.52 0.42 0.34 0.28 0.24 0.23 0.20 0.18 0.19 0.22
0.01 0.01 0.01 0.00 0.00 0.00 0.01 0.01 0.01 0.00 0.00 0.01 0.02 0.04 0.05 0.06 0.04 0.03 0.05 0.08 0.11 0.17 0.18 0.25 0.34 0.42 0.52 0.63 0.70 0.74 0.70 0.63 0.57 0.52 0.45 0.39 0.32 0.28 0.26 0.22 0.19 0.19 0.21
0.00 0.01 0.00 0.00 0.00 0.00 0.01 0.02 0.04 0.03 0.02 0.01 0.01 0.02 0.03 0.03 0.04 0.03 0.03 0.06 0.09 0.15 0.20 0.32 0.45 0.52 0.58 0.63 0.64 0.64 0.66 0.63 0.54 0.48 0.44 0.40 0.34 0.28 0.25 0.23 0.20 0.18 0.19
0.00 0.00 0.00 0.00 0.00 0.01 0.01 0.02 0.03 0.05 0.06 0.06 0.03 0.02 0.02 0.03 0.04 0.04 0.04 0.04 0.06 0.13 0.25 0.40 0.50 0.56 0.59 0.62 0.60 0.57 0.58 0.57 0.51 0.43 0.38 0.35 0.31 0.26 0.23 0.21 0.18 0.14 0.12
0.00 0.00 0.00 0.00 0.00 0.00 0.01 0.02 0.03 0.04 0.05 0.05 0.04 0.02 0.02 0.04 0.05 0.07 0.08 0.06 0.11 0.18 0.29 0.40 0.48 0.51 0.52 0.53 0.53 0.52 0.51 0.51 0.46 0.41 0.37 0.35 0.31 0.26 0.21 0.16 0.12 0.09 0.08
0.00 0.00 0.00 0.00 0.00 0.00 0.01 0.01 0.02 0.04 0.04 0.05 0.04 0.03 0.04 0.06 0.08 0.09 0.09 0.10 0.13 0.19 0.27 0.37 0.44 0.44 0.42 0.39 0.39 0.39 0.40 0.40 0.38 0.36 0.34 0.32 0.29 0.25 0.19 0.14 0.10 0.08 0.07
0.01 0.00 0.00 0.00 0.00 0.00 0.00 0.01 0.01 0.02 0.03 0.04 0.04 0.05 0.09 0.10 0.13 0.16 0.18 0.20 0.21 0.23 0.26 0.29 0.34 0.37 0.36 0.33 0.30 0.27 0.28 0.30 0.30 0.28 0.27 0.25 0.22 0.19 0.15 0.11 0.08 0.06 0.04
0.01 0.01 0.00 0.00 0.00 0.00 0.00 0.00 0.00 0.01 0.02 0.02 0.03 0.04 0.10 0.10 0.14 0.19 0.24 0.27 0.29 0.28 0.26 0.26 0.28 0.30 0.29 0.28 0.27 0.24 0.23 0.23 0.23 0.22 0.22 0.20 0.17 0.14 0.11 0.08 0.05 0.04 0.03
0.00 0.01 0.00 0.00 0.00 0.00 0.00 0.00 0.00 0.00 0.01 0.01 0.02 0.03 0.06 0.10 0.15 0.22 0.28 0.30 0.29 0.30 0.26 0.24 0.27 0.30 0.28 0.24 0.22 0.21 0.20 0.20 0.19 0.19 0.20 0.18 0.15 0.11 0.08 0.05 0.03 0.02 0.02
0.00 0.00 0.00 0.00 0.00 0.00 0.00 0.00 0.00 0.00 0.00 0.00 0.01 0.03 0.05 0.08 0.13 0.19 0.25 0.28 0.30 0.30 0.31 0.32 0.33 0.32 0.29 0.23 0.20 0.18 0.18 0.19 0.18 0.20 0.19 0.16 0.12 0.09 0.06 0.03 0.02 0.01 0.01
0.00 0.00 0.00 0.00 0.00 0.00 0.00 0.00 0.00 0.00 0.00 0.00 0.01 0.02 0.03 0.05 0.08 0.11 0.16 0.20 0.23 0.26 0.28 0.31 0.32 0.30 0.26 0.21 0.17 0.14 0.16 0.16 0.14 0.16 0.19 0.15 0.11 0.08 0.05 0.03 0.02 0.01 0.01
0.00 0.00 0.00 0.00 0.00 0.00 0.00 0.00 0.00 0.00 0.00 0.00 0.00 0.01 0.02 0.03 0.06 0.09 0.11 0.13 0.14 0.17 0.21 0.27 0.29 0.23 0.15 0.11 0.11 0.10 0.08 0.06 0.05 0.07 0.14 0.15 0.11 0.09 0.07 0.04 0.02 0.01 0.01

GEFSGL_prec_meanprecacc_042.txt.gz
Total_Precipitation_Accumulation
0.10 0.08 0.08 0.07 0.05 0.05 0.04 0.04 0.04 0.03 0.03 0.04 0.04 0.04 0.03 0.03 0.03 0.05 0.06 0.07 0.07 0.07 0.07 0.08 0.07 0.08 0.09 0.09 0.10 0.11 0.13 0.19 0.22 0.11 0.05 0.06 0.11 0.18 0.26 0.29 0.30 0.28 0.25
0.08 0.07 0.05 0.04 0.04 0.04 0.03 0.03 0.03 0.04 0.04 0.04 0.04 0.04 0.03 0.03 0.05 0.06 0.07 0.06 0.07 0.07 0.07 0.07 0.07 0.07 0.08 0.07 0.08 0.09 0.11 0.16 0.24 0.20 0.10 0.06 0.09 0.15 0.20 0.22 0.21 0.20 0.22
0.06 0.04 0.03 0.03 0.03 0.03 0.03 0.04 0.04 0.04 0.05 0.05 0.04 0.04 0.05 0.05 0.07 0.06 0.06 0.06 0.06 0.06 0.06 0.07 0.08 0.08 0.07 0.06 0.08 0.10 0.12 0.16 0.22 0.24 0.14 0.10 0.13 0.19 0.26 0.26 0.22 0.26 0.25
0.04 0.03 0.03 0.03 0.04 0.04 0.05 0.05 0.05 0.06 0.06 0.06 0.06 0.05 0.06 0.06 0.05 0.04 0.03 0.03 0.04 0.04 0.05 0.07 0.08 0.09 0.09 0.11 0.12 0.13 0.17 0.19 0.20 0.21 0.16 0.11 0.14 0.18 0.25 0.32 0.32 0.29 0.28
0.06 0.05 0.06 0.05 0.06 0.07 0.08 0.09 0.09 0.09 0.08 0.07 0.07 0.06 0.05 0.04 0.02 0.00 0.00 0.01 0.01 0.02 0.04 0.07 0.08 0.09 0.13 0.15 0.15 0.16 0.21 0.24 0.25 0.26 0.22 0.18 0.16 0.21 0.26 0.30 0.31 0.32 0.28
0.09 0.10 0.10 0.10 0.11 0.12 0.12 0.12 0.11 0.10 0.08 0.06 0.04 0.02 0.02 0.01 0.00 0.00 0.00 0.00 0.01 0.02 0.05 0.06 0.04 0.04 0.05 0.06 0.11 0.17 0.24 0.29 0.33 0.35 0.31 0.25 0.18 0.20 0.28 0.35 0.36 0.37 0.31
0.18 0.17 0.15 0.15 0.15 0.14 0.12 0.10 0.08 0.06 0.04 0.03 0.02 0.01 0.01 0.01 0.00 0.00 0.00 0.00 0.02 0.04 0.07 0.06 0.04 0.03 0.05 0.08 0.11 0.14 0.18 0.24 0.34 0.41 0.38 0.27 0.23 0.26 0.39 0.49 0.44 0.42 0.40
0.21 0.20 0.18 0.16 0.15 0.12 0.09 0.07 0.05 0.03 0.03 0.02 0.02 0.01 0.02 0.01 0.00 0.00 0.00 0.01 0.02 0.04 0.05 0.06 0.07 0.06 0.07 0.11 0.12 0.16 0.17 0.19 0.28 0.35 0.36 0.32 0.33 0.36 0.44 0.48 0.44 0.44 0.35
0.21 0.17 0.13 0.10 0.07 0.06 0.04 0.03 0.02 0.02 0.02 0.01 0.01 0.02 0.02 0.03 0.00 0.00 0.00 0.01 0.02 0.02 0.03 0.04 0.06 0.07 0.09 0.12 0.16 0.22 0.23 0.29 0.46 0.64 0.64 0.58 0.59 0.58 0.48 0.40 0.42 0.45 0.41
0.11 0.07 0.05 0.03 0.02 0.02 0.02 0.02 0.02 0.02 0.01 0.01 0.01 0.02 0.03 0.04 0.01 0.00 0.01 0.02 0.02 0.02 0.02 0.02 0.05 0.08 0.10 0.14 0.18 0.27 0.34 0.43 0.65 0.84 0.75 0.67 0.59 0.57 0.54 0.42 0.45 0.55 0.51
0.04 0.02 0.01 0.01 0.01 0.01 0.01 0.01 0.02 0.01 0.01 0.01 0.02 0.02 0.03 0.03 0.02 0.00 0.01 0.02 0.04 0.04 0.04 0.06 0.09 0.14 0.14 0.16 0.24 0.35 0.51 0.61 0.76 0.89 0.73 0.54 0.45 0.38 0.38 0.41 0.44 0.45 0.42
0.01 0.01 0.01 0.01 0.00 0.00 0.01 0.01 0.01 0.01 0.01 0.01 0.01 0.02 0.02 0.03 0.02 0.01 0.00 0.01 0.03 0.06 0.11 0.13 0.18 0.22 0.20 0.24 0.35 0.51 0.67 0.77 0.76 0.76 0.61 0.44 0.35 0.33 0.35 0.34 0.29 0.27 0.28
0.01 0.01 0.01 0.01 0.00 0.00 0.00 0.00 0.01 0.01 0.01 0.01 0.02 0.02 0.02 0.03 0.03 0.01 0.01 0.02 0.04 0.08 0.16 0.26 0.29 0.28 0.33 0.41 0.57 0.73 0.79 0.77 0.73 0.62 0.50 0.41 0.30 0.26 0.26 0.26 0.23 0.22 0.24
0.01 0.01 0.02 0.01 0.01 0.00 0.00 0.00 0.01 0.01 0.01 0.02 0.02 0.03 0.04 0.04 0.04 0.03 0.03 0.04 0.06 0.08 0.13 0.26 0.36 0.39 0.50 0.64 0.74 0.78 0.78 0.81 0.72 0.54 0.44 0.36 0.28 0.24 0.22 0.21 0.21 0.21 0.25
0.01 0.01 0.01 0.01 0.01 0.01 0.00 0.00 0.01 0.01 0.01 0.02 0.03 0.04 0.07 0.08 0.05 0.05 0.07 0.08 0.10 0.14 0.16 0.20 0.24 0.33 0.49 0.63 0.72 0.74 0.73 0.74 0.69 0.54 0.44 0.36 0.30 0.26 0.24 0.21 0.19 0.20 0.24
0.01 0.01 0.01 0.00 0.00 0.00 0.01 0.01 0.01 0.00 0.00 0.01 0.02 0.04 0.05 0.07 0.05 0.04 0.06 0.09 0.13 0.18 0.19 0.25 0.34 0.43 0.54 0.65 0.72 0.77 0.73 0.66 0.60 0.54 0.47 0.40 0.34 0.29 0.27 0.23 0.20 0.20 0.23
0.00 0.01 0.00 0.00 0.00 0.00 0.01 0.02 0.04 0.03 0.02 0.01 0.01 0.03 0.03 0.04 0.04 0.03 0.04 0.07 0.10 0.16 0.20 0.33 0.46 0.54 0.61 0.65 0.67 0.67 0.69 0.66 0.57 0.50 0.45 0.41 0.35 0.29 0.26 0.24 0.21 0.20 0.20
0.00 0.00 0.00 0.00 0.00 0.01 0.01 0.02 0.03 0.05 0.06 0.06 0.03 0.02 0.03 0.04 0.06 0.05 0.05 0.05 0.07 0.14 0.26 0.41 0.52 0.58 0.62 0.65 0.63 0.60 0.61 0.60 0.53 0.45 0.40 0.36 0.32 0.27 0.24 0.22 0.19 0.15 0.14
0.00 0.00 0.00 0.00 0.00 0.00 0.01 0.02 0.03 0.04 0.05 0.05 0.04 0.02 0.04 0.06 0.07 0.08 0.09 0.07 0.12 0.19 0.30 0.42 0.50 0.53 0.54 0.55 0.55 0.53 0.53 0.53 0.48 0.42 0.38 0.36 0.32 0.26 0.22 0.17 0.13 0.11 0.10
0.00 0.00 0.00 0.00 0.00 0.00 0.01 0.01 0.02 0.04 0.04 0.05 0.05 0.04 0.05 0.08 0.09 0.11 0.10 0.11 0.14 0.21 0.29 0.39 0.46 0.46 0.44 0.41 0.40 0.40 0.41 0.40 0.39 0.37 0.35 0.33 0.29 0.25 0.20 0.15 0.11 0.09 0.08
0.01 0.00 0.00 0.00 0.00 0.00 0.00 0.01 0.01 0.02 0.03 0.04 0.04 0.06 0.11 0.12 0.15 0.18 0.20 0.22 0.23 0.25 0.28 0.31 0.36 0.38 0.38 0.34 0.31 0.28 0.28 0.30 0.30 0.29 0.28 0.25 0.23 0.20 0.16 0.12 0.09 0.06 0.05
0.01 0.01 0.00 0.00 0.00 0.00 0.00 0.00 0.00 0.01 0.02 0.02 0.03 0.05 0.12 0.12 0.15 0.21 0.26 0.29 0.32 0.31 0.28 0.28 0.29 0.31 0.30 0.29 0.27 0.24 0.23 0.23 0.23 0.22 0.22 0.20 0.17 0.14 0.11 0.08 0.05 0.04 0.03
0.00 0.01 0.00 0.00 0.00 0.00 0.00 0.00 0.00 0.00 0.01 0.01 0.02 0.04 0.07 0.11 0.17 0.24 0.31 0.32 0.32 0.32 0.28 0.25 0.28 0.31 0.29 0.24 0.22 0.21 0.20 0.20 0.19 0.19 0.20 0.18 0.15 0.11 0.08 0.05 0.03 0.02 0.02
0.00 0.00 0.00 0.00 0.00 0.00 0.00 0.00 0.00 0.00 0.00 0.00 0.01 0.03 0.05 0.09 0.14 0.21 0.27 0.31 0.33 0.33 0.33 0.33 0.34 0.33 0.29 0.23 0.20 0.18 0.18 0.19 0.18 0.20 0.19 0.16 0.12 0.09 0.06 0.03 0.02 0.01 0.01
0.00 0.00 0.00 0.00 0.00 0.00 0.00 0.00 0.00 0.00 0.00 0.00 0.01 0.02 0.03 0.05 0.08 0.12 0.18 0.23 0.26 0.29 0.31 0.32 0.32 0.30 0.27 0.21 0.17 0.14 0.16 0.16 0.14 0.16 0.19 0.15 0.11 0.08 0.05 0.03 0.02 0.01 0.01
0.00 0.00 0.00 0.00 0.00 0.00 0.00 0.00 0.00 0.00 0.00 0.00 0.00 0.01 0.02 0.03 0.06 0.09 0.11 0.14 0.16 0.19 0.23 0.28 0.30 0.23 0.15 0.11 0.11 0.10 0.08 0.06 0.05 0.07 0.14 0.15 0.11 0.09 0.07 0.04 0.02 0.01 0.01

GEFSGL_prec_meanprecacc_048.txt.gz
Total_Precipitation_Accumulation
0.10 0.09 0.08 0.07 0.06 0.05 0.05 0.05 0.04 0.04 0.04 0.05 0.05 0.05 0.05 0.04 0.04 0.05 0.07 0.07 0.08 0.07 0.07 0.08 0.07 0.08 0.09 0.09 0.10 0.11 0.13 0.19 0.22 0.11 0.05 0.06 0.11 0.19 0.27 0.30 0.31 0.29 0.26
0.09 0.07 0.05 0.04 0.04 0.04 0.04 0.04 0.04 0.04 0.04 0.05 0.05 0.05 0.04 0.04 0.05 0.07 0.07 0.06 0.07 0.07 0.07 0.07 0.07 0.07 0.08 0.07 0.08 0.09 0.11 0.17 0.25 0.21 0.10 0.07 0.10 0.16 0.21 0.23 0.22 0.21 0.23
0.06 0.04 0.03 0.03 0.03 0.03 0.04 0.04 0.04 0.05 0.06 0.06 0.05 0.05 0.05 0.06 0.07 0.07 0.06 0.06 0.06 0.06 0.06 0.07 0.08 0.08 0.07 0.07 0.09 0.10 0.13 0.17 0.23 0.26 0.16 0.11 0.13 0.20 0.28 0.28 0.24 0.29 0.27
0.04 0.03 0.03 0.03 0.04 0.05 0.05 0.06 0.06 0.07 0.08 0.07 0.07 0.06 0.06 0.07 0.06 0.04 0.03 0.03 0.04 0.04 0.05 0.07 0.09 0.09 0.09 0.12 0.14 0.16 0.19 0.22 0.22 0.24 0.19 0.14 0.16 0.20 0.28 0.35 0.35 0.32 0.30
0.06 0.05 0.06 0.06 0.06 0.08 0.09 0.10 0.10 0.10 0.09 0.08 0.08 0.06 0.05 0.04 0.02 0.01 0.01 0.01 0.02 0.02 0.04 0.07 0.08 0.09 0.13 0.16 0.17 0.20 0.26 0.30 0.30 0.31 0.26 0.21 0.19 0.25 0.31 0.36 0.36 0.36 0.30
0.10 0.11 0.11 0.12 0.12 0.14 0.14 0.13 0.13 0.12 0.10 0.07 0.04 0.03 0.02 0.02 0.01 0.01 0.01 0.01 0.01 0.03 0.05 0.07 0.05 0.04 0.06 0.07 0.11 0.19 0.27 0.34 0.38 0.41 0.37 0.31 0.23 0.26 0.34 0.41 0.42 0.42 0.35
0.19 0.18 0.17 0.17 0.17 0.17 0.14 0.12 0.10 0.07 0.05 0.04 0.03 0.02 0.02 0.02 0.00 0.00 0.00 0.00 0.02 0.05 0.08 0.07 0.05 0.04 0.06 0.10 0.12 0.15 0.19 0.26 0.37 0.47 0.46 0.34 0.30 0.33 0.47 0.56 0.50 0.48 0.45
0.23 0.22 0.21 0.18 0.17 0.13 0.10 0.08 0.05 0.04 0.03 0.03 0.02 0.02 0.02 0.02 0.00 0.00 0.00 0.01 0.03 0.05 0.06 0.07 0.09 0.09 0.10 0.12 0.13 0.18 0.20 0.23 0.32 0.41 0.43 0.39 0.39 0.42 0.50 0.54 0.50 0.49 0.39
0.24 0.19 0.15 0.11 0.08 0.06 0.05 0.03 0.03 0.02 0.02 0.02 0.02 0.02 0.03 0.04 0.01 0.00 0.00 0.02 0.02 0.03 0.04 0.05 0.08 0.10 0.10 0.12 0.17 0.25 0.26 0.32 0.48 0.66 0.66 0.61 0.62 0.61 0.51 0.45 0.49 0.51 0.45
0.13 0.09 0.06 0.04 0.03 0.02 0.02 0.02 0.02 0.02 0.02 0.01 0.02 0.03 0.04 0.05 0.01 0.00 0.01 0.02 0.03 0.03 0.03 0.04 0.07 0.09 0.10 0.14 0.20 0.30 0.39 0.47 0.68 0.88 0.79 0.71 0.63 0.62 0.58 0.47 0.52 0.61 0.56
0.05 0.03 0.02 0.01 0.01 0.01 0.01 0.02 0.02 0.02 0.02 0.02 0.02 0.03 0.04 0.04 0.02 0.00 0.01 0.03 0.04 0.05 0.06 0.07 0.11 0.14 0.14 0.16 0.25 0.38 0.55 0.63 0.80 0.95 0.78 0.59 0.50 0.43 0.43 0.47 0.49 0.51 0.48
0.03 0.02 0.02 0.01 0.01 0.00 0.01 0.02 0.02 0.02 0.02 0.02 0.02 0.03 0.03 0.04 0.03 0.01 0.00 0.01 0.03 0.07 0.13 0.16 0.20 0.23 0.20 0.25 0.36 0.53 0.69 0.80 0.82 0.82 0.66 0.49 0.39 0.37 0.39 0.38 0.33 0.32 0.33
0.03 0.02 0.02 0.01 0.01 0.01 0.01 0.02 0.02 0.02 0.02 0.02 0.02 0.03 0.03 0.04 0.04 0.01 0.01 0.02 0.04 0.08 0.17 0.27 0.30 0.28 0.33 0.44 0.59 0.74 0.82 0.83 0.79 0.67 0.54 0.45 0.35 0.31 0.30 0.30 0.27 0.27 0.29
0.03 0.02 0.03 0.02 0.01 0.01 0.01 0.01 0.02 0.02 0.02 0.03 0.04 0.04 0.05 0.06 0.05 0.04 0.04 0.04 0.06 0.09 0.14 0.28 0.37 0.40 0.52 0.67 0.77 0.82 0.84 0.87 0.78 0.60 0.49 0.41 0.32 0.27 0.26 0.24 0.24 0.25 0.28
0.02 0.02 0.02 0.02 0.02 0.02 0.02 0.01 0.02 0.03 0.01 0.02 0.04 0.06 0.09 0.09 0.06 0.06 0.08 0.09 0.11 0.15 0.17 0.22 0.27 0.35 0.51 0.65 0.75 0.78 0.78 0.80 0.74 0.59 0.48 0.39 0.33 0.28 0.27 0.24 0.23 0.23 0.27
0.02 0.02 0.01 0.01 0.01 0.01 0.02 0.03 0.01 0.00 0.00 0.01 0.03 0.05 0.06 0.07 0.06 0.04 0.06 0.10 0.14 0.19 0.20 0.27 0.36 0.45 0.56 0.67 0.75 0.80 0.77 0.72 0.65 0.58 0.51 0.44 0.37 0.32 0.30 0.26 0.23 0.23 0.26
0.01 0.02 0.01 0.01 0.01 0.01 0.02 0.04 0.06 0.05 0.02 0.02 0.02 0.03 0.04 0.05 0.06 0.04 0.05 0.08 0.12 0.18 0.22 0.35 0.48 0.56 0.63 0.68 0.69 0.70 0.72 0.70 0.62 0.55 0.49 0.44 0.38 0.32 0.28 0.27 0.24 0.22 0.23
0.01 0.00 0.01 0.01 0.01 0.01 0.01 0.03 0.04 0.07 0.08 0.08 0.04 0.03 0.04 0.05 0.07 0.06 0.06 0.06 0.08 0.15 0.27 0.43 0.54 0.60 0.65 0.67 0.65 0.61 0.63 0.62 0.56 0.49 0.44 0.39 0.35 0.30 0.27 0.24 0.21 0.17 0.16
0.00 0.01 0.01 0.01 0.00 0.01 0.01 0.02 0.03 0.05 0.06 0.06 0.05 0.04 0.05 0.07 0.09 0.10 0.11 0.09 0.13 0.21 0.32 0.44 0.52 0.56 0.57 0.57 0.57 0.55 0.54 0.54 0.49 0.44 0.41 0.39 0.36 0.29 0.24 0.19 0.15 0.12 0.11
0.01 0.00 0.00 0.00 0.00 0.01 0.01 0.01 0.03 0.04 0.05 0.06 0.06 0.05 0.06 0.09 0.12 0.13 0.12 0.13 0.16 0.22 0.30 0.40 0.47 0.48 0.46 0.43 0.41 0.41 0.42 0.41 0.40 0.38 0.37 0.36 0.33 0.28 0.22 0.16 0.13 0.11 0.10
0.01 0.00 0.00 0.00 0.00 0.00 0.00 0.01 0.02 0.03 0.04 0.05 0.06 0.07 0.13 0.14 0.18 0.21 0.22 0.24 0.26 0.27 0.29 0.32 0.37 0.40 0.39 0.35 0.32 0.29 0.29 0.31 0.31 0.30 0.29 0.28 0.25 0.21 0.17 0.13 0.10 0.07 0.06
0.01 0.01 0.00 0.00 0.00 0.00 0.00 0.00 0.01 0.01 0.02 0.03 0.04 0.07 0.14 0.14 0.18 0.24 0.29 0.32 0.34 0.34 0.30 0.29 0.30 0.32 0.31 0.29 0.27 0.25 0.24 0.24 0.24 0.23 0.24 0.22 0.19 0.15 0.12 0.08 0.06 0.04 0.04
0.00 0.01 0.01 0.00 0.00 0.00 0.00 0.00 0.00 0.00 0.01 0.02 0.03 0.05 0.08 0.13 0.19 0.26 0.33 0.35 0.34 0.34 0.29 0.26 0.28 0.31 0.29 0.25 0.22 0.21 0.20 0.20 0.19 0.20 0.22 0.21 0.17 0.12 0.09 0.06 0.03 0.02 0.02
0.00 0.00 0.00 0.00 0.00 0.00 0.00 0.00 0.00 0.00 0.00 0.01 0.02 0.04 0.06 0.10 0.16 0.23 0.30 0.33 0.35 0.34 0.34 0.34 0.34 0.33 0.29 0.24 0.20 0.18 0.18 0.19 0.18 0.21 0.21 0.19 0.14 0.10 0.06 0.04 0.02 0.01 0.01
0.00 0.00 0.00 0.00 0.00 0.00 0.00 0.00 0.00 0.00 0.00 0.00 0.01 0.02 0.04 0.06 0.09 0.14 0.19 0.24 0.27 0.30 0.31 0.32 0.33 0.31 0.27 0.21 0.17 0.14 0.16 0.16 0.14 0.16 0.21 0.19 0.13 0.10 0.06 0.04 0.03 0.02 0.01
0.00 0.00 0.00 0.00 0.00 0.00 0.00 0.00 0.00 0.00 0.00 0.00 0.00 0.01 0.02 0.04 0.07 0.10 0.13 0.16 0.18 0.20 0.24 0.28 0.30 0.23 0.15 0.11 0.11 0.10 0.08 0.06 0.05 0.07 0.15 0.18 0.13 0.10 0.09 0.06 0.03 0.02 0.02

GEFSGL_prec_meanprecacc_054.txt.gz
Total_Precipitation_Accumulation
0.12 0.10 0.10 0.09 0.07 0.07 0.06 0.05 0.05 0.05 0.05 0.05 0.05 0.05 0.05 0.04 0.04 0.06 0.07 0.08 0.08 0.07 0.07 0.08 0.08 0.08 0.10 0.09 0.10 0.11 0.13 0.19 0.23 0.11 0.05 0.06 0.12 0.19 0.27 0.30 0.31 0.30 0.26
0.10 0.08 0.07 0.06 0.05 0.05 0.04 0.04 0.04 0.05 0.05 0.05 0.05 0.05 0.04 0.04 0.05 0.07 0.07 0.06 0.07 0.07 0.07 0.07 0.07 0.08 0.08 0.08 0.09 0.10 0.12 0.17 0.26 0.22 0.11 0.07 0.10 0.17 0.22 0.25 0.23 0.22 0.24
0.07 0.05 0.04 0.04 0.04 0.04 0.04 0.04 0.04 0.05 0.06 0.06 0.05 0.05 0.05 0.06 0.07 0.07 0.06 0.06 0.06 0.06 0.07 0.07 0.08 0.09 0.08 0.08 0.10 0.12 0.14 0.18 0.26 0.28 0.18 0.12 0.15 0.21 0.30 0.30 0.27 0.32 0.29
0.05 0.04 0.04 0.04 0.04 0.05 0.06 0.06 0.06 0.07 0.08 0.08 0.07 0.06 0.06 0.07 0.06 0.04 0.03 0.03 0.04 0.04 0.05 0.08 0.09 0.10 0.11 0.14 0.15 0.17 0.22 0.25 0.25 0.27 0.21 0.16 0.18 0.23 0.33 0.40 0.39 0.36 0.34
0.06 0.06 0.06 0.06 0.07 0.08 0.10 0.10 0.10 0.10 0.09 0.09 0.08 0.07 0.05 0.04 0.02 0.01 0.01 0.01 0.02 0.03 0.05 0.08 0.09 0.10 0.14 0.17 0.17 0.20 0.27 0.32 0.33 0.35 0.30 0.25 0.22 0.29 0.37 0.42 0.42 0.40 0.34
0.10 0.11 0.12 0.12 0.13 0.14 0.14 0.14 0.14 0.12 0.11 0.07 0.05 0.03 0.03 0.02 0.01 0.01 0.01 0.01 0.02 0.04 0.07 0.08 0.06 0.06 0.07 0.08 0.12 0.19 0.28 0.36 0.42 0.46 0.42 0.36 0.28 0.32 0.42 0.47 0.48 0.47 0.38
0.19 0.18 0.18 0.17 0.17 0.17 0.15 0.13 0.11 0.09 0.06 0.05 0.04 0.03 0.03 0.03 0.00 0.00 0.00 0.00 0.03 0.06 0.10 0.09 0.06 0.05 0.09 0.13 0.14 0.16 0.21 0.29 0.42 0.54 0.53 0.41 0.37 0.40 0.54 0.61 0.55 0.53 0.49
0.23 0.22 0.21 0.19 0.17 0.14 0.11 0.09 0.07 0.05 0.05 0.04 0.03 0.03 0.04 0.03 0.00 0.00 0.00 0.01 0.04 0.07 0.08 0.09 0.11 0.13 0.13 0.13 0.13 0.18 0.23 0.29 0.39 0.46 0.50 0.45 0.45 0.47 0.54 0.58 0.54 0.53 0.42
0.24 0.20 0.16 0.12 0.09 0.07 0.06 0.05 0.04 0.04 0.04 0.03 0.02 0.03 0.05 0.05 0.01 0.00 0.00 0.02 0.03 0.04 0.05 0.08 0.10 0.13 0.12 0.12 0.17 0.26 0.29 0.37 0.51 0.68 0.68 0.63 0.63 0.62 0.53 0.48 0.53 0.57 0.49
0.14 0.10 0.07 0.04 0.04 0.03 0.03 0.03 0.04 0.04 0.03 0.03 0.03 0.04 0.06 0.07 0.02 0.00 0.01 0.02 0.04 0.04 0.05 0.07 0.09 0.10 0.11 0.14 0.20 0.32 0.43 0.51 0.70 0.90 0.83 0.76 0.68 0.66 0.61 0.52 0.59 0.68 0.62
0.07 0.04 0.03 0.02 0.01 0.02 0.02 0.04 0.05 0.05 0.05 0.04 0.05 0.05 0.06 0.05 0.03 0.00 0.01 0.03 0.05 0.06 0.07 0.11 0.15 0.15 0.14 0.16 0.25 0.40 0.58 0.64 0.81 1.00 0.84 0.64 0.54 0.47 0.48 0.54 0.57 0.59 0.55
0.05 0.04 0.03 0.02 0.01 0.01 0.04 0.06 0.06 0.07 0.06 0.05 0.05 0.05 0.05 0.05 0.04 0.01 0.00 0.01 0.03 0.08 0.16 0.19 0.23 0.23 0.20 0.25 0.37 0.54 0.69 0.82 0.87 0.90 0.72 0.53 0.43 0.41 0.43 0.43 0.40 0.39 0.41
0.06 0.05 0.03 0.03 0.02 0.02 0.05 0.07 0.07 0.08 0.06 0.05 0.05 0.05 0.05 0.06 0.06 0.02 0.01 0.02 0.04 0.09 0.20 0.28 0.30 0.28 0.34 0.47 0.62 0.75 0.85 0.90 0.88 0.74 0.60 0.50 0.39 0.35 0.35 0.34 0.32 0.33 0.35
0.05 0.04 0.04 0.04 0.05 0.05 0.06 0.06 0.07 0.07 0.05 0.04 0.06 0.06 0.07 0.08 0.07 0.05 0.04 0.05 0.07 0.09 0.16 0.29 0.39 0.42 0.54 0.71 0.82 0.88 0.92 0.94 0.83 0.67 0.54 0.45 0.36 0.31 0.30 0.29 0.29 0.30 0.32
0.04 0.03 0.04 0.04 0.04 0.07 0.07 0.04 0.03 0.04 0.01 0.03 0.05 0.06 0.10 0.11 0.07 0.06 0.08 0.09 0.11 0.15 0.17 0.24 0.32 0.41 0.56 0.71 0.81 0.84 0.86 0.87 0.80 0.64 0.53 0.43 0.36 0.32 0.31 0.29 0.28 0.28 0.30
0.06 0.05 0.03 0.02 0.03 0.04 0.07 0.08 0.03 0.01 0.00 0.01 0.03 0.05 0.06 0.08 0.06 0.05 0.06 0.10 0.14 0.19 0.22 0.31 0.41 0.48 0.59 0.70 0.79 0.85 0.83 0.78 0.71 0.63 0.55 0.48 0.40 0.35 0.33 0.30 0.27 0.26 0.29
0.04 0.04 0.02 0.01 0.02 0.02 0.04 0.09 0.12 0.07 0.02 0.02 0.02 0.03 0.04 0.05 0.06 0.05 0.05 0.09 0.12 0.19 0.25 0.38 0.51 0.60 0.66 0.71 0.73 0.75 0.78 0.76 0.68 0.60 0.53 0.48 0.41 0.34 0.30 0.29 0.26 0.24 0.25
0.02 0.02 0.02 0.02 0.01 0.02 0.03 0.04 0.08 0.12 0.12 0.10 0.06 0.03 0.04 0.06 0.08 0.07 0.07 0.07 0.10 0.17 0.30 0.46 0.57 0.64 0.69 0.71 0.70 0.67 0.69 0.69 0.62 0.54 0.48 0.43 0.38 0.32 0.28 0.26 0.23 0.19 0.17
0.01 0.02 0.02 0.01 0.01 0.01 0.02 0.02 0.04 0.08 0.10 0.10 0.08 0.05 0.06 0.08 0.11 0.12 0.12 0.10 0.15 0.23 0.34 0.46 0.56 0.60 0.62 0.63 0.62 0.61 0.61 0.61 0.56 0.50 0.46 0.42 0.37 0.31 0.26 0.21 0.16 0.13 0.13
0.01 0.00 0.00 0.01 0.01 0.01 0.01 0.02 0.04 0.07 0.08 0.08 0.08 0.06 0.07 0.12 0.15 0.16 0.15 0.15 0.18 0.24 0.31 0.42 0.50 0.53 0.52 0.49 0.47 0.47 0.48 0.48 0.47 0.45 0.43 0.39 0.34 0.29 0.23 0.18 0.14 0.13 0.12
0.01 0.01 0.00 0.00 0.00 0.00 0.01 0.01 0.02 0.05 0.06 0.07 0.07 0.08 0.14 0.17 0.21 0.24 0.25 0.26 0.27 0.28 0.31 0.34 0.39 0.44 0.43 0.40 0.35 0.33 0.33 0.36 0.37 0.37 0.36 0.32 0.27 0.22 0.18 0.14 0.11 0.09 0.08
0.01 0.01 0.00 0.00 0.00 0.00 0.00 0.00 0.01 0.02 0.03 0.05 0.07 0.08 0.15 0.16 0.20 0.27 0.31 0.33 0.36 0.35 0.31 0.31 0.33 0.35 0.34 0.33 0.30 0.27 0.26 0.26 0.27 0.30 0.31 0.28 0.22 0.16 0.12 0.09 0.07 0.05 0.05
0.00 0.01 0.01 0.00 0.00 0.00 0.00 0.01 0.01 0.01 0.02 0.03 0.05 0.07 0.10 0.15 0.21 0.29 0.36 0.37 0.36 0.36 0.32 0.29 0.31 0.35 0.32 0.28 0.25 0.22 0.21 0.20 0.20 0.24 0.29 0.29 0.21 0.14 0.09 0.06 0.04 0.03 0.03
0.00 0.00 0.00 0.00 0.00 0.00 0.00 0.00 0.00 0.01 0.01 0.01 0.03 0.05 0.08 0.12 0.18 0.25 0.31 0.35 0.37 0.37 0.37 0.37 0.37 0.36 0.31 0.25 0.21 0.18 0.18 0.19 0.19 0.22 0.26 0.27 0.20 0.12 0.07 0.05 0.03 0.03 0.03
0.00 0.00 0.00 0.00 0.00 0.00 0.00 0.00 0.00 0.01 0.01 0.01 0.02 0.03 0.05 0.07 0.11 0.15 0.21 0.26 0.28 0.31 0.33 0.36 0.35 0.32 0.27 0.21 0.17 0.14 0.16 0.16 0.14 0.17 0.24 0.26 0.18 0.12 0.08 0.05 0.04 0.04 0.04
0.00 0.00 0.00 0.00 0.00 0.00 0.00 0.00 0.00 0.00 0.01 0.01 0.01 0.02 0.03 0.05 0.08 0.11 0.14 0.17 0.19 0.22 0.26 0.31 0.32 0.23 0.15 0.11 0.11 0.10 0.08 0.06 0.05 0.08 0.18 0.23 0.16 0.12 0.12 0.09 0.05 0.04 0.04